JPSS-1

Last updated on Wed Apr 24 2024 00:02:32 GMT+0000 (Coordinated Universal Time)

1 43013U 17073A 24114.50632584 .00000346 00000+0 18482-3 0 9992 2 43013 98.7034 53.3519 0001757 52.6473 307.4863 14.19568229333149
UTC large
Height (km)
Speed (km/s)
/
Latitude / Longitude
Inclination (degrees)
Orbital Period (minutes)
Azimuth
Elevation
Range (km)
Doppler Factor

Next 0 passes for location: London (51.5072 / 0.1276)

Sorry there are no passes over London.
JPSS-1